Weather History for KMGW - February, 2010

Change the Weather History Date:

Tuesday, February 2, 2010

  Actual Average Record
Temperature  
Mean Temperature 32 °F 32 °F  
Max Temperature 40 °F 40 °F 64 °F (1989)
Min Temperature 24 °F 24 °F -6 °F (1971)
Degree Days  
Heating Degree Days 33 33  
Month to date heating degree days 73 66  
Since 1 July heating degree days 2931 3093  
Cooling Degree Days 0 0  
Month to date cooling degree days 0 0  
Year to date cooling degree days 0 0  
Moisture  
Dew Point 28 °F    
Average Humidity 74    
Maximum Humidity 96    
Minimum Humidity 52    
Precipitation  
Precipitation 0.03 in 0.09 in 1.05 in (1956)
Month to date precipitation 0.03 0.18  
Year to date precipitation 2.39 2.99  
Sea Level Pressure  
Sea Level Pressure 30.05 in    
Wind  
Wind Speed 1 mph (SSE)    
Max Wind Speed 10 mph    
Max Gust Speed 14 mph    
Visibility 5 miles    
Events Snow    
T = Trace of Precipitation, MM = Missing Value Source: NWS Daily Summary

Daily Weather History Graph

Daily Weather History Graph

Search for Another Location

Airport or City:

Trip Planner

Search our weather history database for the weather conditions in past years. The results will help you decide how hot, cold, wet, or windy it might be!

Date:

Astronomy

Feb. 02, 2010 Rise Set
Actual Time 7:26 AM EST 5:40 PM EST
Civil Twilight 6:58 AM EST 6:09 PM EST
Nautical Twilight 6:25 AM EST 6:41 PM EST
Astronomical Twilight 5:54 AM EST 7:12 PM EST
Moon 10:16 PM EST (2/2) 9:06 AM EST (2/2)
Length of Visible Light 11h 11m
Length of Day
10h 14m
Waning Gibbous, 83% of the Moon is Illuminated
Feb 2
Waning Gibbous
Feb 5
Last Quarter
Feb 13
New
Feb 21
First Quarter
Feb 28
Full

Hourly Weather History & Observations

Time (EST) Temp. Windchill Dew Point Humidity Pressure Visibility Wind Dir Wind Speed Gust Speed Precip Events Conditions
12:53 AM 24.1 °F 19.7 °F 15.1 °F 69% 30.21 in 10.0 mi North 3.5 mph - N/A   Clear
1:53 AM 24.1 °F - 15.1 °F 69% 30.19 in 10.0 mi Calm Calm - N/A   Overcast
2:53 AM 25.0 °F - 16.0 °F 69% 30.20 in 10.0 mi Calm Calm - N/A   Overcast
3:53 AM 25.0 °F - 16.0 °F 69% 30.20 in 10.0 mi Calm Calm - N/A   Overcast
4:53 AM 26.1 °F - 17.1 °F 69% 30.18 in 10.0 mi Calm Calm - N/A   Overcast
5:53 AM 26.1 °F - 17.1 °F 69% 30.17 in 10.0 mi Calm Calm - N/A   Mostly Cloudy
6:53 AM 26.1 °F - 18.0 °F 71% 30.16 in 10.0 mi Calm Calm - N/A   Overcast
7:53 AM 27.0 °F - 18.0 °F 69% 30.13 in 10.0 mi Calm Calm - N/A   Mostly Cloudy
8:53 AM 28.9 °F - 19.0 °F 67% 30.12 in 10.0 mi Calm Calm - N/A   Clear
9:53 AM 30.9 °F - 19.0 °F 61% 30.13 in 10.0 mi Calm Calm - N/A   Mostly Cloudy
10:53 AM 33.1 °F - 19.9 °F 59% 30.13 in 10.0 mi Calm Calm - N/A   Mostly Cloudy
11:53 AM 37.0 °F - 21.0 °F 52% 30.10 in 10.0 mi Calm Calm - N/A   Mostly Cloudy
12:53 PM 37.9 °F - 21.0 °F 51% 30.07 in 10.0 mi Calm Calm - N/A   Mostly Cloudy
1:53 PM 37.9 °F - 21.0 °F 51% 30.05 in 10.0 mi Calm Calm - N/A   Partly Cloudy
2:53 PM 39.9 °F 34.5 °F 26.1 °F 58% 30.03 in 10.0 mi SSW 8.1 mph - N/A   Mostly Cloudy
3:27 PM 37.4 °F 30.3 °F 30.2 °F 75% 30.00 in 7.0 mi SSW 10.4 mph - 0.00 in Snow Light Snow
3:42 PM 37.4 °F 30.3 °F 30.2 °F 75% 30.00 in 3.0 mi SSW 10.4 mph - 0.00 in Snow Light Snow
3:51 PM 37.4 °F 30.3 °F 30.2 °F 75% 30.00 in 1.5 mi SSW 10.4 mph - 0.00 in Snow Light Snow
3:53 PM 37.0 °F 29.8 °F 30.9 °F 79% 30.04 in 1.5 mi SSW 10.4 mph - 0.00 in Snow Light Snow
4:00 PM 35.6 °F - 30.2 °F 81% 30.00 in 2.0 mi Calm Calm - 0.00 in Snow Light Snow
4:09 PM 35.6 °F - 30.2 °F 81% 30.00 in 1.2 mi Calm Calm - 0.00 in Snow Light Snow
4:18 PM 35.6 °F - 30.2 °F 81% 30.00 in 1.0 mi Calm Calm - 0.01 in Snow Light Snow
4:38 PM 35.6 °F - 32.0 °F 87% 30.00 in 1.2 mi Calm Calm - 0.01 in Snow Light Snow
4:53 PM 35.1 °F - 32.0 °F 89% 30.04 in 1.8 mi Calm Calm - 0.02 in Snow Light Snow
5:07 PM 35.6 °F - 32.0 °F 87% 30.00 in 1.8 mi Calm Calm - 0.00 in Snow Light Snow
5:18 PM 35.6 °F - 32.0 °F 87% 30.00 in 1.5 mi Calm Calm - 0.00 in Snow Light Snow
5:53 PM 34.0 °F 29.8 °F 30.9 °F 89% 30.04 in 1.0 mi SE 4.6 mph - 0.01 in Snow Light Snow
5:59 PM 33.8 °F 29.6 °F 30.2 °F 87% 30.00 in 2.0 mi SE 4.6 mph - 0.00 in Snow Light Snow
6:14 PM 33.8 °F - 32.0 °F 93% 30.00 in 4.0 mi Calm Calm - 0.00 in Snow Light Snow
6:37 PM 33.8 °F 30.8 °F 32.0 °F 93% 30.00 in 2.5 mi ESE 3.5 mph - 0.00 in Snow Light Snow
6:44 PM 33.8 °F 30.8 °F 32.0 °F 93% 30.00 in 7.0 mi ESE 3.5 mph - 0.00 in   Overcast
6:53 PM 35.1 °F - 32.0 °F 89% 30.04 in 7.0 mi Calm Calm - 0.00 in   Overcast
7:53 PM 36.0 °F - 32.0 °F 86% 30.04 in 6.0 mi Calm Calm - N/A   Overcast
8:31 PM 35.6 °F - 32.0 °F 87% 30.01 in 2.5 mi Calm Calm - N/A   Overcast
8:43 PM 35.6 °F - 32.0 °F 87% 30.01 in 1.8 mi Calm Calm - N/A   Overcast
8:51 PM 35.6 °F - 32.0 °F 87% 30.01 in 2.0 mi Calm Calm - 0.00 in Snow Light Snow
8:53 PM 35.1 °F - 32.0 °F 89% 30.04 in 2.0 mi Calm Calm - 0.00 in Snow Light Snow
8:59 PM 35.6 °F - 32.0 °F 87% 30.01 in 1.8 mi Calm Calm - 0.00 in Snow Light Snow
9:24 PM 33.8 °F 30.8 °F 30.2 °F 87% 30.00 in 1.2 mi SE 3.5 mph - 0.00 in Snow Light Snow
9:37 PM 33.8 °F - 32.0 °F 93% 30.00 in 0.8 mi Calm Calm - 0.00 in   Overcast
9:44 PM 33.8 °F - 32.0 °F 93% 30.00 in 1.0 mi Calm Calm - 0.00 in   Overcast
9:53 PM 34.0 °F - 32.0 °F 92% 30.03 in 1.0 mi Calm Calm - 0.00 in   Overcast
10:14 PM 33.8 °F - 32.0 °F 93% 29.99 in 0.8 mi Calm Calm - N/A   Overcast
10:44 PM 33.8 °F - 30.2 °F 87% 30.00 in 2.0 mi Calm Calm - N/A   Overcast
10:51 PM 33.8 °F - 32.0 °F 93% 30.00 in 1.8 mi Calm Calm - N/A   Overcast
10:53 PM 34.0 °F - 32.0 °F 92% 30.03 in 1.5 mi Calm Calm - N/A   Overcast
11:08 PM 35.6 °F - 32.0 °F 87% 30.00 in 2.5 mi Calm Calm - N/A   Overcast
11:16 PM 35.6 °F - 32.0 °F 87% 30.00 in 3.0 mi Calm Calm - N/A   Overcast
11:27 PM 33.8 °F - 32.0 °F 93% 29.99 in 2.0 mi Calm Calm - N/A   Overcast
11:36 PM 35.6 °F - 32.0 °F 87% 29.99 in 1.8 mi Calm Calm - N/A   Overcast
11:53 PM 35.1 °F - 32.0 °F 89% 30.02 in 2.5 mi Calm Calm - N/A   Overcast